• In Hungary
  • List of Countries
  • For 7 days
  • Water Temperature
  • Satellite Maps
  • Weather Map
  • News
  • Weather Widgets
  • user-avatar
    Login

    Hourly Weather Kolka

    Today, 22 November, Wednesday

    Time Temperature Precipitation Wind Pressure Humidity
    00:00 -1°C° 0 mm 2 mps 756 mmHg 89%
    01:00 +1°C° 0 mm 2 mps 757 mmHg 89%
    02:00 +1°C° 0 mm 2 mps 757 mmHg 84%
    03:00 +1°C° 0 mm 2 mps 757 mmHg 83%
    04:00 +1°C° 0 mm 2 mps 757 mmHg 81%
    05:00 +1°C° 0 mm 2 mps 757 mmHg 80%
    06:00 +2°C° 0 mm 1 mps 757 mmHg 80%
    07:00 +1°C° 0 mm 1 mps 758 mmHg 81%
    08:00 +1°C° 0 mm 1 mps 758 mmHg 82%
    09:00 +2°C° 0 mm 1 mps 758 mmHg 79%
    10:00 +2°C° 0 mm 1 mps 758 mmHg 77%
    11:00 +3°C° 0 mm 1 mps 758 mmHg 75%
    12:00 +2°C° 0 mm 2 mps 759 mmHg 75%
    13:00 +2°C° 0 mm 2 mps 759 mmHg 75%
    14:00 +1°C° 0 mm 3 mps 759 mmHg 75%
    15:00 +1°C° 0 mm 3 mps 759 mmHg 79%
    16:00 -1°C° 0 mm 4 mps 759 mmHg 82%
    17:00 -2°C° 0 mm 4 mps 759 mmHg 86%
    18:00 -2°C° 0 mm 5 mps 759 mmHg 85%
    19:00 -2°C° 0 mm 5 mps 759 mmHg 84%
    20:00 -2°C° 0 mm 6 mps 759 mmHg 83%
    21:00 -2°C° 0 mm 7 mps 759 mmHg 80%
    22:00 -2°C° 0 mm 7 mps 759 mmHg 77%
    23:00 -2°C° 0 mm 8 mps 759 mmHg 74%

    Tomorrow, 23 November, Thursday

    Time Temperature Precipitation Wind Pressure Humidity
    00:00 -2°C° 0.1 mm 8 mps 759 mmHg 73%
    01:00 -3°C° 0.1 mm 9 mps 758 mmHg 71%
    02:00 -2°C° 0.1 mm 10 mps 758 mmHg 69%
    03:00 -2°C° 0.5 mm 10 mps 758 mmHg 73%
    04:00 -3°C° 0.5 mm 11 mps 757 mmHg 78%
    05:00 -3°C° 0.5 mm 11 mps 757 mmHg 83%
    06:00 -2°C° 0.2 mm 11 mps 757 mmHg 84%
    07:00 -2°C° 0.2 mm 11 mps 757 mmHg 85%
    08:00 -2°C° 0.2 mm 11 mps 756 mmHg 86%
    09:00 0°C° 0 mm 10 mps 756 mmHg 86%
    10:00 0°C° 0 mm 10 mps 756 mmHg 87%
    11:00 +1°C° 0 mm 9 mps 756 mmHg 88%
    12:00 +1°C° 0 mm 9 mps 756 mmHg 88%
    13:00 +2°C° 0 mm 9 mps 756 mmHg 88%
    14:00 +2°C° 0 mm 9 mps 756 mmHg 88%
    15:00 +2°C° 0 mm 9 mps 756 mmHg 89%
    16:00 +2°C° 0 mm 9 mps 755 mmHg 89%
    17:00 +2°C° 0 mm 10 mps 755 mmHg 90%
    18:00 +2°C° 0 mm 10 mps 755 mmHg 90%
    19:00 +2°C° 0 mm 10 mps 755 mmHg 89%
    20:00 +1°C° 0 mm 10 mps 755 mmHg 89%
    21:00 +2°C° 0 mm 10 mps 755 mmHg 89%
    22:00 +2°C° 0 mm 10 mps 755 mmHg 88%
    23:00 +2°C° 0 mm 9 mps 755 mmHg 87%

    Day after tomorrow, 24 November, Friday

    Time Temperature Precipitation Wind Pressure Humidity
    00:00 +2°C° 0.1 mm 9 mps 755 mmHg 88%
    01:00 +2°C° 0.1 mm 9 mps 755 mmHg 88%
    02:00 +3°C° 0.1 mm 9 mps 755 mmHg 88%
    03:00 +3°C° 0.1 mm 9 mps 755 mmHg 88%
    04:00 +5°C° 0.1 mm 9 mps 755 mmHg 89%
    05:00 +5°C° 0.1 mm 8 mps 755 mmHg 90%
    06:00 +5°C° 0 mm 8 mps 756 mmHg 91%
    07:00 +5°C° 0 mm 7 mps 756 mmHg 92%
    08:00 +5°C° 0 mm 6 mps 756 mmHg 93%
    09:00 +5°C° 0 mm 6 mps 757 mmHg 91%
    10:00 +5°C° 0 mm 6 mps 757 mmHg 89%
    11:00 +5°C° 0 mm 6 mps 758 mmHg 87%
    12:00 +5°C° 0 mm 6 mps 758 mmHg 86%
    13:00 +5°C° 0 mm 6 mps 758 mmHg 84%
    14:00 +5°C° 0 mm 6 mps 758 mmHg 83%
    15:00 +5°C° 0 mm 6 mps 757 mmHg 85%
    16:00 +5°C° 0 mm 6 mps 757 mmHg 87%
    17:00 +5°C° 0 mm 7 mps 757 mmHg 89%
    18:00 +5°C° 0.7 mm 7 mps 756 mmHg 89%
    19:00 +6°C° 0.7 mm 8 mps 756 mmHg 89%
    20:00 +6°C° 0.7 mm 9 mps 755 mmHg 89%
    21:00 +6°C° 0.5 mm 9 mps 755 mmHg 88%
    22:00 +7°C° 0.5 mm 9 mps 755 mmHg 88%
    23:00 +7°C° 0.5 mm 9 mps 755 mmHg 88%

    25 November, Saturday

    Time Temperature Precipitation Wind Pressure Humidity
    00:00 +7°C° 0.5 mm 9 mps 755 mmHg 89%
    01:00 +7°C° 0.5 mm 9 mps 755 mmHg 90%
    02:00 +7°C° 0.5 mm 8 mps 755 mmHg 91%
    03:00 +6°C° 0.1 mm 7 mps 756 mmHg 90%
    04:00 +7°C° 0.1 mm 6 mps 756 mmHg 89%
    05:00 +6°C° 0.1 mm 5 mps 757 mmHg 88%
    06:00 +5°C° 0 mm 4 mps 757 mmHg 88%
    07:00 +6°C° 0 mm 2 mps 758 mmHg 89%
    08:00 +6°C° 0 mm 1 mps 758 mmHg 90%
    09:00 +6°C° 0 mm 1 mps 758 mmHg 89%
    10:00 +6°C° 0 mm 1 mps 758 mmHg 87%
    11:00 +6°C° 0 mm 2 mps 758 mmHg 86%
    12:00 +5°C° 0.1 mm 3 mps 757 mmHg 87%
    13:00 +5°C° 0.1 mm 4 mps 756 mmHg 89%
    14:00 +4°C° 0.1 mm 6 mps 756 mmHg 90%
    15:00 +4°C° 1 mm 6 mps 755 mmHg 90%
    16:00 +5°C° 1 mm 7 mps 754 mmHg 89%
    17:00 +5°C° 1 mm 8 mps 753 mmHg 89%
    18:00 +5°C° 0.6 mm 8 mps 752 mmHg 88%
    19:00 +5°C° 0.6 mm 8 mps 752 mmHg 86%
    20:00 +5°C° 0.6 mm 8 mps 751 mmHg 85%
    21:00 +5°C° 0 mm 8 mps 750 mmHg 84%
    22:00 +5°C° 0 mm 9 mps 750 mmHg 84%
    23:00 +5°C° 0 mm 9 mps 749 mmHg 83%

    26 November, Sunday

    Time Temperature Precipitation Wind Pressure Humidity
    00:00 +5°C° 0.2 mm 9 mps 749 mmHg 84%
    01:00 +5°C° 0.2 mm 9 mps 748 mmHg 85%
    02:00 +5°C° 0.2 mm 9 mps 747 mmHg 86%
    03:00 +5°C° 0.7 mm 9 mps 747 mmHg 87%
    04:00 +5°C° 0.7 mm 9 mps 746 mmHg 87%
    05:00 +5°C° 0.7 mm 9 mps 745 mmHg 87%
    06:00 +5°C° 0.4 mm 9 mps 745 mmHg 87%
    07:00 +5°C° 0.4 mm 9 mps 745 mmHg 88%
    08:00 +6°C° 0.4 mm 9 mps 745 mmHg 88%
    09:00 +5°C° 0.2 mm 9 mps 746 mmHg 85%
    10:00 +3°C° 0.2 mm 10 mps 747 mmHg 82%
    11:00 +2°C° 0.2 mm 10 mps 747 mmHg 79%
    12:00 +2°C° 0.1 mm 10 mps 748 mmHg 77%
    13:00 +2°C° 0.1 mm 10 mps 750 mmHg 75%
    14:00 +2°C° 0.1 mm 10 mps 751 mmHg 74%
    15:00 +2°C° 0 mm 9 mps 751 mmHg 74%
    16:00 +1°C° 0 mm 8 mps 752 mmHg 75%
    17:00 +2°C° 0 mm 7 mps 752 mmHg 76%
    18:00 +1°C° 0.1 mm 8 mps 752 mmHg 77%
    19:00 +1°C° 0.1 mm 8 mps 752 mmHg 78%
    20:00 +1°C° 0.1 mm 9 mps 752 mmHg 79%
    21:00 +1°C° 0.1 mm 9 mps 752 mmHg 78%
    22:00 +1°C° 0.1 mm 10 mps 752 mmHg 76%
    23:00 +1°C° 0.1 mm 11 mps 752 mmHg 75%

    27 November, Monday

    Time Temperature Precipitation Wind Pressure Humidity
    00:00 +1°C° 0.1 mm 11 mps 752 mmHg 77%
    01:00 +2°C° 0.1 mm 11 mps 752 mmHg 78%
    02:00 +2°C° 0.1 mm 10 mps 752 mmHg 79%
    03:00 +2°C° 0.1 mm 10 mps 752 mmHg 80%
    04:00 +2°C° 0.1 mm 9 mps 751 mmHg 81%
    05:00 +2°C° 0.1 mm 9 mps 751 mmHg 82%
    06:00 +2°C° 0.2 mm 9 mps 751 mmHg 81%
    07:00 +2°C° 0.2 mm 9 mps 752 mmHg 80%
    08:00 +2°C° 0.2 mm 9 mps 752 mmHg 80%
    09:00 +2°C° 0.1 mm 9 mps 752 mmHg 80%
    10:00 +2°C° 0.1 mm 10 mps 752 mmHg 79%
    11:00 +2°C° 0.1 mm 10 mps 752 mmHg 79%
    12:00 +2°C° 0.1 mm 10 mps 752 mmHg 76%
    13:00 +2°C° 0.1 mm 10 mps 751 mmHg 73%
    14:00 +3°C° 0.1 mm 10 mps 751 mmHg 70%
    15:00 +3°C° 0.4 mm 11 mps 751 mmHg 71%
    16:00 +3°C° 0.4 mm 12 mps 750 mmHg 72%
    17:00 +3°C° 0.4 mm 13 mps 750 mmHg 73%
    18:00 +2°C° 0.2 mm 12 mps 750 mmHg 71%
    19:00 +2°C° 0.2 mm 11 mps 750 mmHg 70%
    20:00 +1°C° 0.2 mm 10 mps 750 mmHg 69%
    21:00 +1°C° 0.1 mm 10 mps 750 mmHg 69%
    22:00 +1°C° 0.1 mm 10 mps 750 mmHg 69%
    23:00 +1°C° 0.1 mm 11 mps 750 mmHg 69%
    Show more